User: anonymous   Login
Location: Owatonna
(44.0840°N, 93.2260°W)
Time: 21:39:32
(UTC-05:00)
Language:

Cosmos 1500 Rocket - Orbit

View from above orbital plane
View from above orbital plane
View from above satellite
View from above satellite

Ground track
Ground track

The orbit data is extracted from the following two-line orbital elements,

1 14373U 83099B   18173.62243894 +.00000063 +00000-0 +46116-5 0  9997
2 14373 082.5417 258.3461 0021795 084.8704 030.4804 14.83727333854705
Epoch (UTC): 22 June 2018 14:56:18
Eccentricity: 0.0021795
inclination: 82.5417°
perigee height: 602 km
apogee height: 633 km
right ascension of ascending node: 258.3461°
argument of perigee: 84.8704°
revolutions per day: 14.83727333
mean anomaly at epoch: 30.4804°
orbit number at epoch: 85470

The dashed part of the orbit path shows where the satellite is in the earth's shadow,  

DLR